Location: Newark
(21.0319°N, 105.8400°E)
Time: 21:57:31
(UTC+00:00)

N. Korean satellite - Visible Passes

Search period start: 09 December 2019 00:00
Search period end: 19 December 2019 00:00
Orbit: 456 x 506 km, 97.2° (Epoch: 09 December)

Date Brightness Start Highest point End Pass type
(mag) Time Alt. Az. Time Alt. Az. Time Alt. Az.
09 Dec 10.4 11:17:22 10° WSW 11:18:05 10° W 11:18:49 10° W visible
09 Dec 6.6 22:51:14 10° N 22:54:36 49° WNW 22:57:55 10° SSW visible
10 Dec 9.3 10:49:32 10° SSW 10:52:37 25° W 10:55:42 10° NW visible
10 Dec 7.2 22:25:48 10° NNE 22:29:12 56° E 22:32:34 10° S visible
11 Dec 9.2 22:01:04 10° NE 22:03:45 21° E 22:06:25 10° SSE visible
13 Dec 10.0 11:07:45 10° SW 11:09:43 14° W 11:11:42 10° WNW visible
13 Dec 6.3 22:42:48 10° N 22:46:13 70° WNW 22:49:37 10° SSW visible
14 Dec 8.8 10:40:54 10° SSW 10:44:16 32° W 10:47:37 10° NNW visible
14 Dec 7.9 22:17:33 10° NNE 22:20:49 40° E 22:24:02 10° S visible
15 Dec 9.7 21:53:11 10° ENE 21:55:20 16° E 21:57:28 10° SE visible
16 Dec 7.1 23:00:04 10° N 23:03:12 34° WNW 23:06:18 10° SW visible
17 Dec 9.8 10:58:45 10° SW 11:01:20 18° W 11:03:56 10° NW visible
17 Dec 6.5 22:34:24 10° NNE 22:37:49 83° E 22:41:13 10° S visible
18 Dec 8.6 22:09:22 10° NE 22:12:23 29° E 22:15:23 10° SSE visible
